EW3197 Weather Reports


time (UTC)temp
F
wind
direction
speed
knots
gust
knots
rain 1hr
in
rain 24hr
in
rain mn
in
humidity
%
barometer
mb
20191016023204 38 241 0.0 0.0 0.00 0.00 0.00 93 1019.5
20191016022704 38 241 0.0 0.0 0.00 0.00 0.00 93 1019.6
20191016022203 39 241 0.0 0.0 0.00 0.00 0.00 93 1019.6
20191016021704 39 241 0.0 0.0 0.00 0.00 0.00 94 1019.6
20191016021204 38 241 0.0 0.0 0.00 0.00 0.00 93 1019.6
20191016020703 39 241 0.0 0.0 0.00 0.00 0.00 93 1019.7
20191016020204 39 241 0.0 0.0 0.00 0.00 0.00 93 1019.7
20191016015704 39 241 0.0 0.0 0.00 0.00 0.00 92 1019.6
20191016015204 39 241 0.0 0.0 0.00 0.00 0.00 93 1019.7
20191016014704 39 241 0.0 0.0 0.00 0.00 0.00 92 1019.6
20191016014204 39 241 0.0 0.0 0.00 0.00 0.00 92 1019.6
20191016013703 40 241 0.0 0.0 0.00 0.00 0.00 93 1019.5
20191016013204 39 241 0.0 0.0 0.00 0.00 0.00 93 1019.5
20191016012704 39 241 0.0 0.0 0.00 0.00 0.00 92 1019.5
20191016012203 40 241 0.0 0.0 0.00 0.00 0.00 92 1019.5
20191016011704 40 241 0.0 0.0 0.00 0.00 0.00 92 1019.6
20191016011203 40 241 0.0 0.0 0.00 0.00 0.00 91 1019.5
20191016010704 41 241 0.0 0.0 0.00 0.00 0.00 91 1019.5
20191016010203 41 241 0.0 0.0 0.00 0.00 0.00 92 1019.5
20191016005704 41 241 0.0 0.0 0.00 0.00 0.00 91 1019.4
20191016005203 41 241 0.0 0.0 0.00 0.00 0.00 91 1019.4
20191016004704 41 241 0.0 0.0 0.00 0.00 0.00 91 1019.3
20191016004203 41 241 0.0 0.0 0.00 0.00 0.00 91 1019.4
20191016003704 41 241 0.0 0.0 0.00 0.00 0.00 90 1019.4
20191016003203 42 241 0.0 0.0 0.00 0.00 0.00 90 1019.4
20191016002704 42 241 0.0 0.0 0.00 0.00 0.00 91 1019.4
20191016002204 42 241 0.0 0.0 0.00 0.00 0.00 90 1019.3
20191016001704 42 241 0.0 0.0 0.00 0.00 0.00 90 1019.2
20191016001204 42 241 0.0 0.0 0.00 0.00 0.00 89 1019.2
20191016000703 42 241 0.0 0.0 0.00 0.00 0.00 89 1019.2
20191016000204 42 241 0.0 0.0 0.00 0.00 0.00 89 1019.2
20191015235704 42 241 0.0 0.0 0.00 0.00 0.00 89 1019.2
20191015235204 43 241 0.0 0.0 0.00 0.00 0.00 88 1019.2
20191015234704 43 241 0.0 0.0 0.00 0.00 0.00 88 1019.1
20191015234203 43 241 0.0 0.0 0.00 0.00 0.00 88 1019.1
20191015233704 44 241 0.0 0.0 0.00 0.00 0.00 86 1019.0
20191015233204 44 241 0.0 0.0 0.00 0.00 0.00 86 1019.0
20191015232704 44 241 0.0 0.0 0.00 0.00 0.00 85 1018.9
20191015232204 44 241 0.0 0.0 0.00 0.00 0.00 85 1018.9
20191015231704 45 241 0.0 0.0 0.00 0.00 0.00 85 1018.9
20191015231203 45 241 0.0 0.0 0.00 0.00 0.00 84 1018.8
20191015230704 45 241 0.0 0.0 0.00 0.00 0.00 84 1018.9
20191015230203 46 241 0.0 0.0 0.00 0.00 0.00 83 1018.7
20191015225704 46 241 0.0 0.0 0.00 0.00 0.00 82 1018.8
20191015225204 46 241 0.0 0.0 0.00 0.00 0.00 81 1018.8
20191015224704 47 241 0.0 0.0 0.00 0.00 0.00 80 1018.7
20191015224204 47 241 0.0 0.0 0.00 0.00 0.00 78 1018.7
20191015223703 48 241 0.0 0.0 0.00 0.00 0.00 78 1018.6
20191015223204 48 241 0.0 0.0 0.00 0.00 0.00 77 1018.6
20191015222703 49 241 0.0 0.0 0.00 0.00 0.00 75 1018.6
20191015222204 49 241 0.0 0.0 0.00 0.00 0.00 74 1018.6
20191015221703 50 241 0.0 0.0 0.00 0.00 0.00 72 1018.6
20191015221204 50 241 0.0 0.0 0.00 0.00 0.00 72 1018.6
20191015220704 51 241 0.0 0.0 0.00 0.00 0.00 71 1018.6
20191015220204 51 241 0.0 0.0 0.00 0.00 0.00 70 1018.6
20191015215704 52 241 0.0 0.0 0.00 0.00 0.00 67 1018.6
20191015215204 53 241 0.0 0.0 0.00 0.00 0.00 67 1018.6
20191015214704 54 241 0.0 0.9 0.00 0.00 0.00 66 1018.6
20191015214203 54 241 0.0 0.0 0.00 0.00 0.00 64 1018.6
20191015213704 55 241 0.0 0.9 0.00 0.00 0.00 63 1018.5
20191015213204 55 241 0.0 0.9 0.00 0.00 0.00 60 1018.5
20191015212704 56 241 0.0 0.0 0.00 0.00 0.00 57 1018.5
20191015212204 56 241 0.0 0.9 0.00 0.00 0.00 55 1018.4
20191015211704 57 241 0.0 0.0 0.00 0.00 0.00 54 1018.4
20191015211204 57 241 0.0 1.7 0.00 0.00 0.00 52 1018.4
20191015210703 58 241 0.9 1.7 0.00 0.00 0.00 48 1018.5
20191015210204 58 252 0.0 0.0 0.00 0.00 0.00 47 1018.5
20191015205704 59 252 0.9 1.7 0.00 0.00 0.00 45 1018.5
20191015205204 59 255 0.0 2.6 0.00 0.00 0.00 47 1018.6
20191015204704 59 268 0.0 4.3 0.00 0.00 0.00 46 1018.7
20191015204203 59 265 0.9 2.6 0.00 0.00 0.00 46 1018.7
20191015203704 60 234 1.7 2.6 0.00 0.00 0.00 44 1018.7
20191015203204 59 253 0.9 4.3 0.00 0.00 0.00 44 1018.7
20191015202704 60 266 0.0 2.6 0.00 0.00 0.00 42 1018.8
20191015202204 59 245 0.9 2.6 0.00 0.00 0.00 45 1018.8
20191015201703 59 305 0.9 1.7 0.00 0.00 0.00 43 1018.8
20191015201204 59 348 1.7 2.6 0.00 0.00 0.00 44 1018.9
20191015200703 60 277 0.9 2.6 0.00 0.00 0.00 44 1018.9
20191015200204 60 241 0.9 4.3 0.00 0.00 0.00 47 1018.9
20191015195703 59 276 0.0 0.0 0.00 0.00 0.00 46 1019.0
20191015195204 59 276 0.0 0.0 0.00 0.00 0.00 46 1019.1
20191015194703 59 276 0.0 2.6 0.00 0.00 0.00 45 1019.1
20191015194204 60 274 0.9 2.6 0.00 0.00 0.00 47 1019.2
20191015193704 60 207 0.9 6.1 0.00 0.00 0.00 44 1019.2
20191015193204 60 229 0.9 2.6 0.00 0.00 0.00 45 1019.2
20191015192704 60 259 0.9 2.6 0.00 0.00 0.00 45 1019.3
20191015192203 60 257 1.7 6.1 0.00 0.00 0.00 42 1019.3
20191015191704 60 235 0.9 2.6 0.00 0.00 0.00 43 1019.4
20191015191203 60 253 1.7 4.3 0.00 0.00 0.00 43 1019.4
20191015190704 60 274 1.7 2.6 0.00 0.00 0.00 44 1019.4
20191015190204 60 230 0.9 2.6 0.00 0.00 0.00 43 1019.4
20191015185704 60 226 1.7 4.3 0.00 0.00 0.00 44 1019.4
20191015185203 60 279 1.7 6.1 0.00 0.00 0.00 43 1019.4
20191015184704 61 283 0.9 1.7 0.00 0.00 0.00 44 1019.5
20191015184204 59 33 0.0 2.6 0.00 0.00 0.00 50 1019.5
20191015183703 59 82 1.7 2.6 0.00 0.00 0.00 44 1019.5
20191015183203 61 283 0.9 2.6 0.00 0.00 0.00 48 1019.6
20191015182704 60 221 2.6 5.2 0.00 0.00 0.00 45 1019.8
20191015182204 60 277 1.7 2.6 0.00 0.00 0.00 45 1019.7
20191015181703 59 248 1.7 7.0 0.00 0.00 0.00 45 1019.8
20191015181204 59 306 1.7 2.6 0.00 0.00 0.00 43 1019.8
20191015180703 59 259 0.9 2.6 0.00 0.00 0.00 46 1019.8
20191015180204 59 317 1.7 2.6 0.00 0.00 0.00 46 1019.8
20191015175704 58 341 1.7 2.6 0.00 0.00 0.00 50 1019.8
20191015175203 58 61 0.9 5.2 0.00 0.00 0.00 47 1020.0
20191015174704 58 334 2.6 5.2 0.00 0.00 0.00 48 1020.0
20191015174204 58 339 1.7 4.3 0.00 0.00 0.00 49 1020.1
20191015173703 58 353 1.7 2.6 0.00 0.00 0.00 47 1020.1
20191015173204 58 311 2.6 7.8 0.00 0.00 0.00 48 1020.2
20191015172703 58 341 1.7 4.3 0.00 0.00 0.00 47 1020.2
20191015172204 58 26 0.9 7.8 0.00 0.00 0.00 48 1020.4
20191015171704 58 349 2.6 7.8 0.00 0.00 0.00 51 1020.4
20191015171204 57 252 0.9 2.6 0.00 0.00 0.00 46 1020.5
20191015170704 57 318 0.0 1.7 0.00 0.00 0.00 47 1020.5
20191015170204 57 317 1.7 2.6 0.00 0.00 0.00 48 1020.7
20191015165204 56 338 1.7 5.2 0.00 0.00 0.00 50 1020.7
20191015164703 56 58 0.9 5.2 0.00 0.00 0.00 51 1020.8
20191015164203 55 84 2.6 7.0 0.00 0.00 0.00 51 1020.9
20191015163704 55 44 1.7 2.6 0.00 0.00 0.00 51 1021.1
20191015163204 55 81 0.9 2.6 0.00 0.00 0.00 51 1021.1
20191015162704 55 80 1.7 4.3 0.00 0.00 0.00 51 1021.2
20191015162204 55 35 1.7 4.3 0.00 0.00 0.00 54 1021.2
20191015161704 55 91 2.6 4.3 0.00 0.00 0.00 52 1021.3
20191015161204 55 55 2.6 7.0 0.00 0.00 0.00 52 1021.4
20191015160703 54 326 1.7 2.6 0.00 0.00 0.00 52 1021.4
20191015160203 54 342 1.7 4.3 0.00 0.00 0.00 54 1021.4
20191015155703 55 94 0.9 2.6 0.00 0.00 0.00 53 1021.4
20191015155203 54 258 1.7 2.6 0.00 0.00 0.00 53 1021.4
20191015154704 54 312 1.7 4.3 0.00 0.00 0.00 53 1021.5
20191015154204 54 353 0.0 4.3 0.00 0.00 0.00 58 1021.5
20191015153703 53 10 0.9 2.6 0.00 0.00 0.00 57 1021.5
20191015153204 53 10 2.6 2.6 0.00 0.00 0.00 58 1021.6
20191015152704 53 311 0.0 2.6 0.00 0.00 0.00 60 1021.6
20191015152204 53 310 0.9 2.6 0.00 0.00 0.00 60 1021.7
20191015151704 53 320 1.7 4.3 0.00 0.00 0.00 63 1021.7
20191015151204 52 15 2.6 4.3 0.00 0.00 0.00 63 1021.7
20191015150703 52 28 1.7 2.6 0.00 0.00 0.00 66 1021.7
20191015150204 52 332 0.9 2.6 0.00 0.00 0.00 66 1021.7
20191015145704 52 13 1.7 2.6 0.00 0.00 0.00 66 1021.7
20191015145203 51 315 1.7 2.6 0.00 0.00 0.00 68 1021.7
20191015144704 51 105 1.7 2.6 0.00 0.00 0.00 67 1021.8
20191015144203 51 92 2.6 4.3 0.00 0.00 0.00 69 1021.8
20191015143704 51 45 0.9 2.6 0.00 0.00 0.00 70 1021.9
20191015143203 50 101 0.0 2.6 0.00 0.00 0.00 73 1021.9
20191015142704 50 79 0.9 5.2 0.00 0.00 0.00 72 1021.9
20191015142204 50 64 0.9 2.6 0.00 0.00 0.00 72 1022.0
20191015141704 49 49 0.9 2.6 0.00 0.00 0.00 73 1022.0
20191015141204 49 84 0.9 2.6 0.00 0.00 0.00 74 1022.0
20191015140704 48 298 0.0 1.7 0.00 0.00 0.00 75 1022.1
20191015140203 48 309 0.9 2.6 0.00 0.00 0.00 76 1022.1
20191015135704 48 311 0.0 1.7 0.00 0.00 0.00 78 1022.1
20191015135203 47 311 0.9 1.7 0.00 0.00 0.00 78 1022.1
20191015134703 47 311 0.9 1.7 0.00 0.00 0.00 79 1022.0
20191015134204 46 311 0.9 1.7 0.00 0.00 0.00 81 1022.0
20191015133704 46 315 0.0 0.0 0.00 0.00 0.00 86 1022.0
20191015133204 45 315 0.0 0.0 0.00 0.00 0.00 87 1021.9
20191015132704 44 315 0.0 0.0 0.00 0.00 0.00 90 1021.9
20191015132204 43 315 0.0 0.0 0.00 0.00 0.00 91 1022.0
20191015131704 42 315 0.0 0.0 0.00 0.00 0.00 92 1022.0
20191015131203 42 315 0.0 0.0 0.00 0.00 0.00 92 1022.0
20191015130704 41 315 0.0 0.0 0.00 0.00 0.00 93 1022.0
20191015130203 40 315 0.0 0.0 0.00 0.00 0.00 93 1022.0
20191015125704 40 315 0.0 0.0 0.00 0.00 0.00 93 1021.9
20191015125204 39 315 0.0 0.0 0.00 0.00 0.00 94 1022.0
20191015124704 39 315 0.0 0.0 0.00 0.00 0.00 94 1022.0
20191015124203 38 315 0.0 0.0 0.00 0.00 0.00 94 1022.0
20191015123704 38 315 0.0 0.0 0.00 0.00 0.00 95 1022.0
20191015123204 37 315 0.0 0.0 0.00 0.00 0.00 95 1022.0
20191015122704 37 315 0.0 0.0 0.00 0.00 0.00 95 1021.9
20191015122204 37 315 0.0 0.0 0.00 0.00 0.00 95 1021.8
20191015121704 36 315 0.0 0.0 0.00 0.00 0.00 95 1021.8
20191015121204 36 315 0.0 0.0 0.00 0.00 0.00 95 1021.7
20191015120703 35 315 0.0 0.0 0.00 0.00 0.00 95 1021.7
20191015120204 35 315 0.0 0.0 0.00 0.00 0.00 95 1021.7
20191015115704 34 315 0.0 0.0 0.00 0.00 0.00 95 1021.5
20191015115203 34 315 0.0 0.0 0.00 0.00 0.00 95 1021.4
20191015114704 34 315 0.0 0.0 0.00 0.00 0.00 95 1021.4
20191015114204 34 315 0.0 0.0 0.00 0.00 0.00 95 1021.3
20191015113704 34 315 0.0 0.0 0.00 0.00 0.00 95 1021.2
20191015113204 34 315 0.0 0.0 0.00 0.00 0.00 95 1021.2
20191015112704 34 315 0.0 0.0 0.00 0.00 0.00 94 1021.1
20191015112204 34 315 0.0 0.0 0.00 0.00 0.00 94 1021.1
20191015111705 34 315 0.0 0.0 0.00 0.00 0.00 94 1021.1
20191015111203 34 315 0.0 0.0 0.00 0.00 0.00 94 1021.0
20191015110704 34 315 0.0 0.0 0.00 0.00 0.00 94 1020.9
20191015110204 34 315 0.0 0.0 0.00 0.00 0.00 94 1020.8
20191015105704 35 315 0.0 0.0 0.00 0.00 0.00 94 1020.8
20191015105204 35 315 0.0 0.0 0.00 0.00 0.00 95 1020.7
20191015104704 34 315 0.0 0.0 0.00 0.00 0.00 94 1020.8
20191015104203 34 315 0.0 0.0 0.00 0.00 0.00 94 1020.7
20191015103704 35 315 0.0 0.0 0.00 0.00 0.00 94 1020.7
20191015103204 35 315 0.0 0.0 0.00 0.00 0.00 94 1020.6
20191015102704 34 315 0.0 0.0 0.00 0.00 0.00 94 1020.5
20191015102204 35 315 0.0 0.0 0.00 0.00 0.00 94 1020.5
20191015101704 35 315 0.0 0.0 0.00 0.00 0.00 94 1020.4
20191015101204 35 315 0.0 0.0 0.00 0.00 0.00 94 1020.3
20191015100703 35 315 0.0 0.0 0.00 0.00 0.00 94 1020.3
20191015100204 35 315 0.0 0.0 0.00 0.00 0.00 94 1020.3
20191015095703 35 315 0.0 0.0 0.00 0.00 0.00 94 1020.4
20191015095204 35 315 0.0 0.0 0.00 0.00 0.00 94 1020.4
20191015094703 35 315 0.0 0.0 0.00 0.00 0.00 94 1020.3
20191015094204 36 315 0.0 0.0 0.00 0.00 0.00 94 1020.2
20191015093704 36 315 0.0 0.0 0.00 0.00 0.00 94 1020.2
20191015093204 36 315 0.0 0.0 0.00 0.00 0.00 94 1020.1
20191015092704 36 315 0.0 0.0 0.00 0.00 0.00 94 1020.1
20191015092204 36 315 0.0 0.0 0.00 0.00 0.00 94 1020.1
20191015091704 36 315 0.0 0.0 0.00 0.00 0.00 94 1020.0
20191015091204 36 315 0.0 0.0 0.00 0.00 0.00 94 1020.0
20191015090704 36 315 0.0 0.0 0.00 0.00 0.00 94 1019.9
20191015090204 36 315 0.0 0.0 0.00 0.00 0.00 94 1019.8
20191015085704 37 315 0.0 0.0 0.00 0.00 0.00 94 1019.7
20191015085204 37 315 0.0 0.0 0.00 0.00 0.00 94 1019.7
20191015084704 37 315 0.0 0.0 0.00 0.00 0.00 93 1019.7
20191015084203 37 315 0.0 0.0 0.00 0.00 0.00 93 1019.8
20191015083704 37 315 0.0 0.0 0.00 0.00 0.00 93 1019.7
20191015083203 37 315 0.0 0.0 0.00 0.00 0.00 93 1019.7
20191015082704 37 315 0.0 0.0 0.00 0.00 0.00 93 1019.7
20191015082203 38 315 0.0 0.0 0.00 0.00 0.00 93 1019.6
20191015081704 38 315 0.0 0.0 0.00 0.00 0.00 93 1019.6
20191015081203 38 315 0.0 0.0 0.00 0.00 0.00 93 1019.5
20191015080704 38 315 0.0 0.0 0.00 0.00 0.00 93 1019.5
20191015080203 38 315 0.0 0.0 0.00 0.00 0.00 93 1019.5
20191015075704 38 315 0.0 0.0 0.00 0.00 0.00 92 1019.3
20191015075205 38 315 0.0 0.9 0.00 0.00 0.00 93 1019.2
20191015074703 38 315 0.0 0.9 0.00 0.00 0.00 93 1019.1
20191015074204 38 315 0.0 0.9 0.00 0.00 0.00 93 1019.1
20191015073704 38 315 0.0 0.9 0.00 0.00 0.00 93 1019.1
20191015073204 38 315 0.0 0.0 0.00 0.00 0.00 92 1019.1
20191015072703 38 315 0.0 0.9 0.00 0.00 0.00 92 1019.1
20191015072204 38 315 0.0 0.9 0.00 0.00 0.00 92 1019.2
20191015071703 39 315 0.0 0.0 0.00 0.00 0.00 92 1019.2
20191015071204 39 315 0.0 0.0 0.00 0.00 0.00 92 1019.1
20191015070704 39 315 0.0 0.0 0.00 0.00 0.00 92 1019.0
20191015070204 39 315 0.0 0.0 0.00 0.00 0.00 91 1019.2
20191015065704 39 315 0.0 0.0 0.00 0.00 0.00 91 1019.2
20191015065203 39 315 0.0 0.0 0.00 0.00 0.00 91 1019.1
20191015064704 39 315 0.0 0.0 0.00 0.00 0.00 91 1019.1
20191015064203 40 315 0.0 0.0 0.00 0.00 0.00 91 1019.1
20191015063703 40 315 0.0 0.0 0.00 0.00 0.00 91 1019.1
20191015063204 40 315 0.0 0.0 0.00 0.00 0.00 91 1019.1
20191015062703 40 315 0.0 0.0 0.00 0.00 0.00 90 1019.1
20191015062204 40 315 0.0 0.9 0.00 0.00 0.00 90 1019.2
20191015061703 40 315 0.0 0.9 0.00 0.00 0.00 89 1019.2
20191015061204 40 315 0.0 0.0 0.00 0.00 0.00 89 1019.1
20191015060704 41 315 0.0 0.0 0.00 0.00 0.00 89 1019.1
20191015060204 41 315 0.0 0.9 0.00 0.00 0.00 88 1019.1
20191015055704 41 315 0.0 1.7 0.00 0.00 0.00 89 1019.0
20191015055204 41 315 0.0 0.9 0.00 0.00 0.00 88 1019.0
20191015054704 42 315 0.0 0.0 0.00 0.00 0.00 88 1019.0
20191015054204 41 315 0.0 0.0 0.00 0.00 0.00 88 1019.0
20191015053703 42 315 0.0 0.9 0.00 0.00 0.00 87 1018.9
20191015053203 42 315 0.0 0.9 0.00 0.00 0.00 86 1018.9
20191015052704 42 315 0.0 0.0 0.00 0.00 0.00 87 1018.9
20191015052204 42 315 0.0 0.0 0.00 0.00 0.00 86 1018.8
20191015051704 42 315 0.0 0.0 0.00 0.00 0.00 86 1018.7
20191015051204 43 315 0.0 0.0 0.00 0.00 0.00 86 1018.7
20191015050704 43 315 0.0 0.0 0.00 0.00 0.00 85 1018.7
20191015050203 43 315 0.0 0.0 0.00 0.00 0.00 85 1018.7
20191015045703 43 315 0.0 0.0 0.00 0.00 0.00 85 1018.6
20191015045204 44 315 0.0 0.0 0.00 0.00 0.00 84 1018.6
20191015044704 44 315 0.0 0.0 0.00 0.00 0.00 83 1018.6
20191015044204 44 315 0.0 0.0 0.00 0.00 0.00 83 1018.5
20191015043704 45 315 0.0 0.0 0.00 0.00 0.00 82 1018.4
20191015043203 45 315 0.0 0.0 0.00 0.00 0.00 81 1018.4
20191015042704 45 315 0.0 0.9 0.00 0.00 0.00 80 1018.3
20191015042204 46 315 0.0 1.7 0.00 0.00 0.00 78 1018.4
20191015041704 47 319 0.0 0.9 0.00 0.00 0.00 74 1018.3
20191015041204 48 319 1.7 4.3 0.00 0.00 0.00 71 1018.3
20191015040703 47 319 0.9 1.7 0.00 0.00 0.00 74 1018.3
20191015040204 47 319 0.0 2.6 0.00 0.00 0.00 77 1018.2
20191015035704 47 311 0.9 4.3 0.00 0.00 0.00 78 1018.1
20191015035203 46 275 0.9 2.6 0.00 0.00 0.00 79 1018.1
20191015034704 47 255 0.9 1.7 0.00 0.00 0.00 79 1018.2
20191015034204 47 255 0.9 2.6 0.00 0.00 0.00 79 1018.2
20191015033703 48 255 0.0 0.9 0.00 0.00 0.00 77 1018.2
20191015033204 48 255 0.0 0.9 0.00 0.00 0.00 75 1018.2
20191015032703 49 255 0.9 1.7 0.00 0.00 0.00 74 1018.1
20191015032204 49 254 0.0 1.7 0.00 0.00 0.00 73 1018.2
20191015031704 50 254 0.9 1.7 0.00 0.00 0.00 69 1018.1
20191015031204 51 330 0.9 2.6 0.00 0.00 0.00 68 1018.2
20191015030704 51 312 0.9 1.7 0.00 0.00 0.00 69 1018.2
20191015030203 51 58 0.9 2.6 0.00 0.00 0.00 68 1018.1
20191015025704 51 318 0.0 0.0 0.00 0.00 0.00 69 1018.0
20191015025204 51 318 0.0 0.0 0.00 0.00 0.00 68 1018.0
20191015024703 52 318 0.0 1.7 0.00 0.00 0.00 67 1018.0
20191015024204 52 317 0.9 2.6 0.00 0.00 0.00 67 1018.0
20191015023703 52 355 2.6 7.8 0.00 0.00 0.00 67 1018.0